Showing default

FLOCK 4G 17, 62681

Orbit data source: Space-Track

FLOCK 4G 17, 62681 is a payload satellite owned by Planet (US) in SSO that was launched on Tue, 14 Jan 2025 UTC via an FALCON 9 launch vehicle from the Air Force Western Test Range (AFWTR). Payload-class satellites include a variety of spacecraft equipped with specific instruments for various scientific and technological missions. These include communications satellites like Starlink; space stations such as the ISS; scientific satellites like the Hubble; Earth observation satellites from companies like Planet Labs, Umbra, and HawkEye 360; GPS; miniature CubeSats for education and research; and military/defense satellites.

Loading next visibility...
Identifier
62681, 2025-009CA
Orbit
SSO
Country
Flag of USUS
Related business
Manufacturer
Planet
Mission
Operational Commercial Imaging
Bus & Motor
CUBESAT 3U, Unknown motor
Mass
5.7 kg wet, 5.7 kg dry
Launch date (UTC)
2025-01-14 (1 year ago)
Launch vehicle
FALCON 9
Launch site
Air Force Western Test Range (AFWTR)
Object type
Payload
Rocket body
Debris
Shape & HBR
Box + 2 Pan, 1.0 m
Radar Cross Section
0.072 m², Medium (>0.1 m² and < 1m²)

Expand to show TLE details & history
Last TLE update: 15 hours ago

TLE from 15 hours ago
0 FLOCK 4G 17
1 62681U 25009CA  26037.76004871  .00013555  00000-0  51956-3 0  9998
2 62681  97.4021 120.0958 0005913  82.6136 277.5775 15.26618706116636
Epoch: 2026-02-06T18:14Z
TLE epoch observation values (Epoch: 2026-02-06T18:14:28.208Z)
Latitude
0.00002°
Longitude
69.58496°
Altitude
488.496 km
Speed
7.621 km/s
True Right ascension
08h 00m 22s
True Declination
0° 00' 00"
Sunlit
Object was in full shadow at epoch
Visualization orbit readout
Latitude
Unknown
Longitude
Unknown
Altitude
Unknown
Speed
Unknown
Apparent Right ascension
Unknown
Apparent Declination
Unknown
Sunlit
N/A
Visualization observer readout
Local Sidereal Time
11:17:03
Azimuth
Unknown
Elevation
Unknown
Doppler factor
Unknown
Orbital elements
Apogee altitude
486.943 km
Perigee altitude
478.829 km
Semi-major axis
6,861.023 km
Eccentricity
0.00059
Inclination
97.4021°
RAAN
120.0958°
Arg. of periapsis
82.6136°
True anomaly
277.51033°
Mean anomaly
277.5775°
Eccentric anomaly
277.54391°
Mean motion
3.81909 °/min
Orbital period
94.26 mins
BSTAR
0.00051956
Loading maneuver chart data...
Computing Atmospheric mass density...
Loading historical data...
Loading historical data...
Loading historical data...
Loading historical data...
Loading historical data...
Loading historical data...
Loading historical data...

Documentation

Showing up to 5 results
|